Regional Weather Roundup
Issued by NWS Wakefield, VA

Home | Current Version | Previous Version | Graphics & Text | Print | Product List | Glossary On
Versions: 1 2 3 4 5 6 7 8 9 10 11 12 13 14 15 16 17 18 19 20 21 22 23 24 25 26 27 28
000
ASUS41 KAKQ 030615
RWRAKQ

REGIONAL WEATHER ROUNDUP
NATIONAL WEATHER SERVICE WAKEFIELD VA
100 AM EST SAT DEC 03 2016

Note: "fair" indicates few or no clouds below 12,000 feet with no
significant weather and/or obstructions to visibility. * = Denotes
station may not report precipitation (e.g., rain,snow,etc.),
thunder or fog.

VAZ042-051-052>054-056-030700-
NORTHERN VIRGINIA

CITY           SKY/WX    TMP DP  RH WIND       PRES   REMARKS
WASH NATIONAL  NOT AVBL
DULLES         NOT AVBL
FORT BELVOIR   CLOUDY    43  26  49 W9        30.15R
QUANTICO       PTCLDY    42  26  53 NW5       30.17R
FREDERICKSBRG* CLOUDY    43  30  61 SW6       30.16S
STAFFORD*      NOT AVBL
WARRENTON      MOCLDY    39  23  52 SW3       30.15R
CULPEPER*      MOCLDY    42  27  54 CALM      30.17S
MANASSAS*      CLOUDY    43  27  52 NW8G17    30.15R
LEESBURG*      CLOUDY    43  32  65 W6        30.14S
WINCHESTER     CLOUDY    39  27  60 SW6G26    30.14S
FRONT ROYAL*   CLOUDY    41  27  56 W5        30.14S
LURAY*         CLOUDY    41  30  65 SW7       30.16S
$$

VAZ048-049-060>072-079>083-030700-
CENTRAL AND SOUTH CENTRAL VIRGINIA

CITY           SKY/WX    TMP DP  RH WIND       PRES   REMARKS
RICHMOND       PTCLDY    38  29  70 W5        30.17S
CHESTERFIELD*  FAIR      32  12  43 CALM      30.19R
PETERSBURG*    CLEAR     29  28  95 CALM      30.18F
HANOVER        PTCLDY    34  28  79 CALM      30.19S
TAPPAHANNOCK*  PTCLDY    37  26  63 W6        30.16F
QUINTON*       FAIR      33  30  90 CALM      30.17S
CHARLOTTSVILLE CLOUDY    42  25  50 SW3       30.16F
GORDONSVILLE*  MOCLDY    41  26  55 W3        30.16F
ORANGE*          N/A     36  30  80 CALM      30.18S
LOUISA*        PTCLDY    39  30  70 W5        30.16S
BUMPASS*       MOCLDY    38  28  66 W3        30.17S
FARMVILLE*     CLEAR     39  31  72 CALM      30.17S
CREWE*         FAIR      35  30  82 CALM      30.18S
FORT PICKETT*  FAIR      36  25  63 NW6       30.17S
CHASE CITY*    FAIR      40  28  60 CALM      30.18S
CLARKSVILLE*   FAIR      41  30  65 NW6       30.19S
SOUTH HILL*    PTCLDY    38  31  74 NW3       30.24R
LAWRENCEVILLE* FAIR      37  30  75 NW5       30.18S
EMPORIA*       PTCLDY    36  30  80 CALM      30.20S
$$

VAZ088>098-030700-
SOUTHEAST VIRGINIA

CITY           SKY/WX    TMP DP  RH WIND       PRES   REMARKS
NORFOLK        CLEAR     45  31  58 N10G23    30.15R
VIRGINIA BEACH PTCLDY    43  29  57 N17G26    30.14R
NORFOLK NAVAL  PTCLDY    44  31  60 N15       30.17R
WEST POINT*    CLEAR     37  30  75 W7        30.18F
SALUDA*        FAIR      42  32  67 W6        30.15S
NEWPORT NEWS   PTCLDY    41  30  65 NW8       30.17R
LANGLEY AFB    CLOUDY    42  31  64 NW12      30.15R
FORT EUSTIS    CLEAR     42  30  62 VRB7      30.14R
WILLIAMSBURG*  CLEAR     39  34  81 CALM      30.18S
HR EXEC AP*    FAIR      41  28  60 N6        30.15S
FRANKLIN*      CLEAR     35  31  85 CALM      30.18S
US460-WAKEFLD  CLEAR     33  30  88 CALM      30.17S
$$

VAZ020-022-025-037-045-030700-
WEST CENTRAL AND SOUTHWEST VIRGINIA

CITY           SKY/WX    TMP DP  RH WIND       PRES   REMARKS
STAUNTON*      NOT AVBL
WAYNESBORO*    CLOUDY    37  23  58 NW9       30.16S
HOT SPRINGS VA NOT AVBL
LYNCHBURG      CLEAR     37  25  61 VRB3      30.19F
DANVILLE       PTCLDY    42  30  62 NW9       30.20S
SOUTH BOSTON*  FAIR      40  28  62 NW12      30.20S
MARTINSVILLE   PTCLDY    40  27  60 N15G21    30.22S
ROANOKE        CLOUDY    39  25  57 W3        30.22F
BLACKSBURG     CLOUDY    35  27  71 NW8G16    30.22F
DUBLIN*        CLOUDY    37  27  69 NW13G23   30.22F
MARION*        CLOUDY    35  28  75 NW14G22   30.23S
HILLSVILLE*    CLOUDY    34  29  80 NW14      30.16F WCI  25
RICHLANDS*     CLOUDY    32  28  87 N5        30.23F
WISE*          CLOUDY    32  28  86 CALM      30.25S
ABINGDON*      CLOUDY    37  30  75 N8        30.25F
$$

MDZ021>025-VAZ099-100-030700-
SOUTHERN MARYLAND AND THE DELMARVA PENINSULA

CITY           SKY/WX    TMP DP  RH WIND       PRES   REMARKS
PATUXENT RIVER CLOUDY    42  26  53 W9        30.14R
BAY BRIDGE APT PTCLDY    43  28  56 W16G23    30.10S
LEONARDTOWN    CLOUDY    39  28  65 W5        30.16R
DOVER          PTCLDY    43  30  60 W14       30.05R
GEORGETOWN     CLEAR     43  28  55 W10       30.08S
EASTON         CLOUDY    45  27  48 W12G20    30.13S
CAMBRIDGE      MOCLDY    43  28  56 W8        30.10S
SALISBURY      CLEAR     41  28  60 W10       30.10R
OCEAN CITY     CLEAR     40  27  59 W8        30.08S
WALLOPS ISLAND CLEAR     41  30  65 NW12      30.11R
ACCOMACK*      PTCLDY    44  30  58 NW14G25   30.12S
$$

NCZ012>017-030>032-030700-
NORTH CENTRAL AND EASTERN NORTH CAROLINA

CITY           SKY/WX    TMP DP  RH WIND       PRES   REMARKS
ROANOKE RAPIDS FAIR      41  32  70 NW5       30.18S
RALEIGH        MOCLDY    45  30  55 VRB6      30.19S
ELIZABETH CITY PTCLDY    42  33  70 NW10      30.15R
AHOSKIE*       CLOUDY    40  31  69 CALM      30.18R
EDENTON*       PTCLDY    46  34  62 N10       30.17R
CURRITUCK*     PTCLDY    43  34  72 NW7       30.15R
KILL DEVIL HLS PTCLDY    47  38  69 NW8       30.11R
MANTEO         PTCLDY    47  35  63 N12       30.13R
CAPE HATTERAS  CLEAR     52  37  56 NW12G22   30.11F
TARBORO*       NOT AVBL
GOLDSBORO      PTCLDY    43  34  69 NW3       30.16S
WASHINGTON     PTCLDY    42  32  68 NW5       30.17S
GREENVILLE     PTCLDY    43  34  70 CALM      30.18S
NEW BERN       CLEAR     43  34  70 NW7       30.16S
WILMINGTON     CLOUDY    40  40 100 W5        30.16F
$$

VAZ048-030700-
ELSEWHERE

CITY           SKY/WX    TMP DP  RH WIND       PRES   REMARKS
HARRISBURG PA  MOCLDY    42  31  64 W12       30.03S
BALTIMORE      MOCLDY    43  28  55 W13G22    30.10R
ANNAPOLIS      CLOUDY    46  27  47 W12       30.11R
ANDREWS AFB    CLOUDY    43  26  50 W17       30.11S
PHILADELPHIA   PTCLDY    42  29  59 W15       30.02S
HENDERSON NC   PTCLDY    39  28  63 NW3       30.19S
GREENSBORO     CLOUDY    44  30  57 N7        30.19R
ROCKY MOUNT    NOT AVBL
$$

VAZ100-030700-
MARINE

STATION/POSITION TIME  TEMP    WIND        PRES    WAVE   SWELL
                       AIR SEA DIR/SP/G            HT/PER HT/PER
                 (UTC) (F)     (DEG/KT/KT) (MB)    (FT/S) (FT/S)
BRANDYWINE LGT   0548   44     280/ 24/ 29   N/A
CAPE MAY NJ      0548   45 48  280/ 23/ 29 1016.9F
LEWES DE         0548   44 50  280/ 17/ 21 1017.7S
OCEAN-CITY-INLET 0548   43 51  320/ 10/ 12 1018.8S
WACHAPREAGUE VA  0548   44 51  290/  3/ 12 1020.0R
THOMAS POINT MD  0600   44 50  290/ 21/ 24   N/A
GOOSES REEF MD   0600   45 51  300/ 16/ 17 1020.8    1/ 3
COVE POINT MD    0548   43     300/ 11/ 13 1020.8R
SOLOMONS ISLAND  0548   44 52  260/  8/ 10   N/A
BISHOPS HEAD MD  0548   45 45  290/ 21/ 25 1020.4R
PINEY POINT MD   0548          330/ 19/ 22   N/A
POTOMAC MD       0600   46 52  310/ 21/ 25 1020.0    3/ 3
CAMBRIDGE MD     0548   45 48  270/ 10/ 16 1018.8R
LEWISETTA VA     0548   45 51  320/ 14/ 17 1020.7R
RAPPAHANNOCK LGT 0548          310/ 21/ 23 1020.7R
STINGRAY PT      0600   44     330/ 14/ 17 1021.1    1/ 3
YORK RVR RNG VA  0548   44     330/ 12/ 15 1020.7R
YORKTOWN VA      0548   44 53  320/ 11/ 15 1021.0R
JAMESTOWN VA     0600   43 53  340/  6/ 10   N/A     0
DOMINION TERM VA 0548   44     360/ 11/ 16 1021.3R
KIPTOPEKE VA     0548      53  350/ 21/ 26   N/A
CHES BAY BRIDGE  0548   46 54  340/ 21/ 29 1020.7R
CAPE HENRY VA    0548   46     330/ 24/ 27   N/A
WILLOUBY STN VA  0548   44     340/ 16/ 18 1021.8R
S CRANEY ISL VA  0548   45     350/ 10/ 14 1021.0R
CAPE HENRY BUOY  0542      56                N/A     4/ 4
1ST LANDING BUOY 0600   46 53              1021.3    4/ 3
CAPE CHARLES BUO 0556      56                N/A     3/ 4
OFFSHORE WE BUOY 0551      56                N/A     5/ 5
64NM E OF VA BCH 0550   49 60  350/ 23/ 27 1018.3R   4/ 5
DUCK PIER NC     0548   47 57  320/ 13/ 16 1019.3R
44100 DUCK FRF   0535      57                N/A     3/ 4
OREGON INLET NC  0536   49 57  290/ 11/ 14 1019.4F
HATTERAS NC      0548   53 61  310/ 17/ 19 1019.4F
DIAMOND SHLS NC  0550   57 75  310/ 21/ 27 1018.9F   4/ 4   2/ 9
CAPE LOOKOUT NC  0500   55     290/ 16/ 19 1020.3F
$$




USA.gov is the U.S. government's official web portal to all federal, state and local government web resources and services.